"read_dt","SO2 (ppb)","flags","PMT voltage (V)","lamp voltage (V)","lamp intensity (Hz)","internal temp (C)","react chamber temp (C)","sample flow (l/min)","pres (mmHg)","SO2 bkg (ppb)","SO2 coefficient"
2015-09-18 00:00:00,2229E-3,5C000400,-0724,0824,12066,030.5,045.5,0.252,755.3,01.16,0.508
2015-09-18 00:01:00,2163E-3,5C000400,-0724,0824,12085,030.5,045.5,0.252,755.3,01.16,0.508
2015-09-18 00:02:00,2089E-3,5C000400,-0724,0824,12200,030.5,045.5,0.252,755.4,01.16,0.508
2015-09-18 00:03:00,2154E-3,5C000400,-0724,0824,12088,030.5,045.5,0.252,755.4,01.16,0.508
2015-09-18 00:04:00,2247E-3,5C000400,-0724,0824,12210,030.5,045.5,0.252,755.4,01.16,0.508
2015-09-18 00:05:00,2241E-3,5C000400,-0724,0823,12202,030.6,045.5,0.252,755.4,01.16,0.508
2015-09-18 00:06:00,2040E-3,5C000400,-0724,0824,12271,030.6,045.5,0.252,755.4,01.16,0.508
2015-09-18 00:07:00,2301E-3,5C000400,-0724,0823,12324,030.6,045.5,0.252,755.4,01.16,0.508
2015-09-18 00:08:00,2230E-3,5C000400,-0724,0823,12359,030.6,045.5,0.252,755.4,01.16,0.508
2015-09-18 00:09:00,2366E-3,5C000400,-0724,0824,12324,030.6,045.5,0.252,755.4,01.16,0.508
2015-09-18 00:10:00,2145E-3,5C000400,-0724,0824,12152,030.6,045.5,0.251,755.4,01.16,0.508
2015-09-18 00:11:00,2101E-3,5C000400,-0724,0824,12230,030.5,045.5,0.252,755.4,01.16,0.508
2015-09-18 00:12:00,2101E-3,5C000400,-0724,0824,12336,030.4,045.5,0.252,755.4,01.16,0.508
2015-09-18 00:13:00,2183E-3,5C000400,-0724,0823,12239,030.2,045.5,0.252,755.4,01.16,0.508
2015-09-18 00:14:00,2156E-3,5C000400,-0724,0824,12330,030.0,045.5,0.252,755.4,01.16,0.508
2015-09-18 00:15:00,2192E-3,5C000400,-0724,0824,12246,029.9,045.5,0.252,755.5,01.16,0.508
2015-09-18 00:16:00,2224E-3,5C000400,-0724,0823,12283,029.8,045.5,0.253,755.5,01.16,0.508
2015-09-18 00:17:00,2230E-3,5C000400,-0724,0823,12147,029.7,045.5,0.252,755.5,01.16,0.508
2015-09-18 00:18:00,2205E-3,5C000400,-0724,0823,12360,029.7,045.5,0.252,755.5,01.16,0.508
2015-09-18 00:19:00,2172E-3,5C000400,-0724,0824,12210,029.7,045.5,0.253,755.5,01.16,0.508
2015-09-18 00:20:00,2245E-3,5C000400,-0724,0824,12203,029.7,045.5,0.253,755.5,01.16,0.508
2015-09-18 00:21:00,2164E-3,5C000400,-0724,0824,12133,029.8,045.5,0.253,755.5,01.16,0.508
2015-09-18 00:22:00,2199E-3,5C000400,-0724,0823,12316,029.9,045.5,0.253,755.5,01.16,0.508
2015-09-18 00:23:00,2155E-3,5C000400,-0724,0824,12250,029.9,045.5,0.253,755.5,01.16,0.508
2015-09-18 00:24:00,2110E-3,5C000400,-0724,0823,12237,029.9,045.5,0.253,755.5,01.16,0.508
2015-09-18 00:25:00,2155E-3,5C000400,-0724,0824,12272,030.0,045.5,0.253,755.5,01.16,0.508
2015-09-18 00:26:00,2105E-3,5C000400,-0724,0824,12249,030.0,045.5,0.253,755.5,01.16,0.508
2015-09-18 00:27:00,2031E-3,5C000400,-0724,0824,12188,030.1,045.5,0.253,755.5,01.16,0.508
2015-09-18 00:28:00,2114E-3,5C000400,-0724,0824,12296,030.1,045.5,0.253,755.5,01.16,0.508
2015-09-18 00:29:00,2225E-3,5C000400,-0724,0823,12149,030.2,045.5,0.253,755.5,01.16,0.508
2015-09-18 00:30:00,2120E-3,5C000400,-0724,0824,12275,030.2,045.5,0.253,755.5,01.16,0.508
2015-09-18 00:31:00,2166E-3,5C000400,-0724,0823,12184,030.2,045.5,0.253,755.5,01.16,0.508
2015-09-18 00:32:00,2201E-3,5C000400,-0724,0824,12349,030.2,045.5,0.253,755.5,01.16,0.508
2015-09-18 00:33:00,2141E-3,5C000400,-0724,0823,12283,030.3,045.5,0.252,755.5,01.16,0.508
2015-09-18 00:34:00,2336E-3,5C000400,-0724,0824,12213,030.3,045.5,0.253,755.5,01.16,0.508
2015-09-18 00:35:00,2005E-3,5C000400,-0724,0824,12191,030.3,045.5,0.253,755.5,01.16,0.508
2015-09-18 00:36:00,2106E-3,5C000400,-0724,0824,12281,030.3,045.5,0.253,755.5,01.16,0.508
2015-09-18 00:37:00,2174E-3,5C000400,-0724,0824,12359,030.4,045.5,0.252,755.5,01.16,0.508
2015-09-18 00:38:00,2295E-3,5C000400,-0724,0824,12215,030.4,045.5,0.252,755.5,01.16,0.508
2015-09-18 00:39:00,2087E-3,5C000400,-0724,0824,12356,030.4,045.5,0.252,755.5,01.16,0.508
2015-09-18 00:40:00,1988E-3,5C000400,-0724,0824,12364,030.5,045.5,0.252,755.5,01.16,0.508
2015-09-18 00:41:00,2246E-3,5C000400,-0724,0823,12135,030.5,045.5,0.252,755.5,01.16,0.508
2015-09-18 00:42:00,2311E-3,5C000400,-0724,0824,12328,030.5,045.5,0.252,755.4,01.16,0.508
2015-09-18 00:43:00,2254E-3,5C000400,-0724,0824,12197,030.5,045.5,0.252,755.5,01.16,0.508
2015-09-18 00:44:00,2125E-3,5C000400,-0724,0824,12296,030.5,045.5,0.252,755.5,01.16,0.508
2015-09-18 00:45:00,2190E-3,5C000400,-0724,0824,12167,030.6,045.5,0.252,755.4,01.16,0.508
2015-09-18 00:46:00,2164E-3,5C000400,-0724,0824,12284,030.6,045.5,0.252,755.5,01.16,0.508
2015-09-18 00:47:00,2128E-3,5C000400,-0724,0824,12125,030.6,045.5,0.252,755.4,01.16,0.508
2015-09-18 00:48:00,2208E-3,5C000400,-0724,0824,12040,030.6,045.5,0.252,755.4,01.16,0.508
2015-09-18 00:49:00,2049E-3,5C000400,-0724,0824,12237,030.6,045.5,0.252,755.5,01.16,0.508
2015-09-18 00:50:00,2229E-3,5C000400,-0724,0825,12328,030.5,045.5,0.251,755.5,01.16,0.508
2015-09-18 00:51:00,2311E-3,5C000400,-0724,0824,12268,030.3,045.5,0.252,755.5,01.16,0.508
2015-09-18 00:52:00,2180E-3,5C000400,-0724,0824,12269,030.2,045.5,0.251,755.5,01.16,0.508
2015-09-18 00:53:00,2216E-3,5C000400,-0724,0824,12245,030.1,045.5,0.252,755.5,01.16,0.508
2015-09-18 00:54:00,2138E-3,5C000400,-0724,0824,12177,029.9,045.5,0.252,755.5,01.16,0.508
2015-09-18 00:55:00,2281E-3,5C000400,-0724,0824,12286,029.8,045.5,0.252,755.5,01.16,0.508
2015-09-18 00:56:00,2120E-3,5C000400,-0724,0824,12261,029.7,045.5,0.252,755.5,01.16,0.508
2015-09-18 00:57:00,2317E-3,5C000400,-0724,0824,12407,029.6,045.5,0.252,755.5,01.16,0.508
2015-09-18 00:58:00,2158E-3,5C000400,-0724,0824,12312,029.7,045.5,0.253,755.5,01.16,0.508
2015-09-18 00:59:00,2198E-3,5C000400,-0724,0824,12372,029.7,045.5,0.252,755.5,01.16,0.508
2015-09-18 01:00:00,2316E-3,5C000400,-0724,0823,12240,029.8,045.5,0.253,755.5,01.16,0.508
2015-09-18 01:01:00,2009E-3,5C000400,-0724,0824,12313,029.8,045.5,0.253,755.5,01.16,0.508
2015-09-18 01:02:00,2125E-3,5C000400,-0724,0824,12252,029.9,045.5,0.253,755.5,01.16,0.508
2015-09-18 01:03:00,2159E-3,5C000400,-0724,0823,12360,029.9,045.5,0.253,755.5,01.16,0.508
2015-09-18 01:04:00,2242E-3,5C000400,-0724,0823,12260,030.0,045.5,0.253,755.4,01.16,0.508
2015-09-18 01:05:00,2108E-3,5C000400,-0724,0823,12285,030.0,045.5,0.253,755.5,01.16,0.508
2015-09-18 01:06:00,2080E-3,5C000400,-0724,0823,12273,030.1,045.5,0.253,755.4,01.16,0.508
2015-09-18 01:07:00,2113E-3,5C000400,-0724,0824,12181,030.1,045.5,0.253,755.5,01.16,0.508
2015-09-18 01:08:00,2219E-3,5C000400,-0724,0824,12246,030.1,045.5,0.253,755.5,01.16,0.508
2015-09-18 01:09:00,2287E-3,5C000400,-0724,0824,12315,030.2,045.5,0.253,755.5,01.16,0.508
2015-09-18 01:10:00,2237E-3,5C000400,-0724,0824,12261,030.2,045.5,0.253,755.5,01.16,0.508
2015-09-18 01:11:00,2165E-3,5C000400,-0724,0824,12292,030.2,045.5,0.252,755.5,01.16,0.508
2015-09-18 01:12:00,2072E-3,5C000400,-0724,0824,12329,030.3,045.5,0.253,755.5,01.16,0.508
2015-09-18 01:13:00,2182E-3,5C000400,-0724,0825,12216,030.3,045.5,0.253,755.5,01.16,0.508
2015-09-18 01:14:00,2118E-3,5C000400,-0724,0824,12308,030.3,045.5,0.253,755.5,01.16,0.508
2015-09-18 01:15:00,2110E-3,5C000400,-0724,0824,12227,030.4,045.5,0.252,755.4,01.16,0.508
2015-09-18 01:16:00,2155E-3,5C000400,-0724,0824,12192,030.4,045.5,0.253,755.4,01.16,0.508
2015-09-18 01:17:00,2110E-3,5C000400,-0724,0823,12360,030.4,045.5,0.252,755.5,01.16,0.508
2015-09-18 01:18:00,2183E-3,5C000400,-0724,0825,12347,030.4,045.5,0.252,755.5,01.16,0.508
2015-09-18 01:19:00,2096E-3,5C000400,-0724,0825,12368,030.5,045.5,0.252,755.5,01.16,0.508
2015-09-18 01:20:00,2108E-3,5C000400,-0724,0824,12186,030.5,045.5,0.252,755.5,01.16,0.508
2015-09-18 01:21:00,2369E-3,5C000400,-0724,0824,12287,030.5,045.5,0.252,755.5,01.16,0.508
2015-09-18 01:22:00,2240E-3,5C000400,-0724,0824,12133,030.5,045.5,0.252,755.5,01.16,0.508
2015-09-18 01:23:00,2097E-3,5C000400,-0724,0824,12277,030.6,045.5,0.252,755.5,01.16,0.508
2015-09-18 01:24:00,2092E-3,5C000400,-0724,0824,12321,030.6,045.5,0.252,755.5,01.16,0.508
2015-09-18 01:25:00,2184E-3,5C000400,-0724,0824,12180,030.5,045.5,0.252,755.5,01.16,0.508
2015-09-18 01:26:00,2125E-3,5C000400,-0724,0823,12222,030.4,045.5,0.252,755.5,01.16,0.508
2015-09-18 01:27:00,2143E-3,5C000400,-0724,0824,12352,030.3,045.5,0.252,755.6,01.16,0.508
2015-09-18 01:28:00,1962E-3,5C000400,-0724,0824,12214,030.1,045.5,0.252,755.6,01.16,0.508
2015-09-18 01:29:00,2276E-3,5C000400,-0724,0822,12258,030.0,045.5,0.252,755.6,01.16,0.508
2015-09-18 01:30:00,2062E-3,5C000400,-0724,0823,12244,029.8,045.5,0.252,755.6,01.16,0.508
2015-09-18 01:31:00,2185E-3,5C000400,-0724,0823,12442,029.7,045.5,0.252,755.6,01.16,0.508
2015-09-18 01:32:00,2245E-3,5C000400,-0724,0823,12253,029.6,045.5,0.253,755.6,01.16,0.508
2015-09-18 01:33:00,2193E-3,5C000400,-0724,0824,12290,029.6,045.5,0.252,755.6,01.16,0.508
2015-09-18 01:34:00,2301E-3,5C000400,-0724,0823,12353,029.6,045.5,0.253,755.6,01.16,0.508
2015-09-18 01:35:00,2291E-3,5C000400,-0724,0824,12263,029.7,045.5,0.253,755.6,01.16,0.508
2015-09-18 01:36:00,2241E-3,5C000400,-0724,0824,12311,029.8,045.5,0.253,755.6,01.16,0.508
2015-09-18 01:37:00,2178E-3,5C000400,-0724,0824,12237,029.8,045.5,0.253,755.6,01.16,0.508
2015-09-18 01:38:00,2203E-3,5C000400,-0724,0824,12254,029.9,045.5,0.253,755.6,01.16,0.508
2015-09-18 01:39:00,2235E-3,5C000400,-0724,0824,12155,029.9,045.5,0.253,755.6,01.16,0.508
2015-09-18 01:40:00,2107E-3,5C000400,-0724,0824,12343,029.9,045.5,0.253,755.6,01.16,0.508
2015-09-18 01:41:00,2269E-3,5C000400,-0724,0824,12315,030.0,045.5,0.253,755.6,01.16,0.508
2015-09-18 01:42:00,2166E-3,5C000400,-0724,0824,12279,030.0,045.5,0.253,755.6,01.16,0.508
2015-09-18 01:43:00,2126E-3,5C000400,-0724,0824,12115,030.1,045.5,0.253,755.6,01.16,0.508
2015-09-18 01:44:00,2150E-3,5C000400,-0724,0824,12119,030.1,045.5,0.252,755.6,01.16,0.508
2015-09-18 01:45:00,2106E-3,5C000400,-0724,0823,12127,030.1,045.5,0.253,755.6,01.16,0.508
2015-09-18 01:46:00,2196E-3,5C000400,-0724,0824,12228,030.2,045.5,0.253,755.6,01.16,0.508
2015-09-18 01:47:00,2042E-3,5C000400,-0724,0825,12325,030.2,045.5,0.253,755.6,01.16,0.508
2015-09-18 01:48:00,2113E-3,5C000400,-0724,0824,12216,030.3,045.5,0.252,755.6,01.16,0.508
2015-09-18 01:49:00,2124E-3,5C000400,-0724,0824,12229,030.3,045.5,0.252,755.6,01.16,0.508
2015-09-18 01:50:00,2080E-3,5C000400,-0724,0824,12189,030.3,045.5,0.252,755.6,01.16,0.508
2015-09-18 01:51:00,2142E-3,5C000400,-0724,0825,12322,030.4,045.5,0.253,755.6,01.16,0.508
2015-09-18 01:52:00,2231E-3,5C000400,-0724,0824,12237,030.4,045.5,0.253,755.6,01.16,0.508
2015-09-18 01:53:00,2152E-3,5C000400,-0724,0824,12380,030.4,045.5,0.252,755.6,01.16,0.508
2015-09-18 01:54:00,2102E-3,5C000400,-0724,0824,12164,030.4,045.5,0.252,755.6,01.16,0.508
2015-09-18 01:55:00,2238E-3,5C000400,-0724,0823,12076,030.5,045.5,0.252,755.6,01.16,0.508
2015-09-18 01:56:00,2086E-3,5C000400,-0724,0824,12298,030.5,045.5,0.252,755.6,01.16,0.508
2015-09-18 01:57:00,2220E-3,5C000400,-0724,0824,12426,030.5,045.5,0.252,755.6,01.16,0.508
2015-09-18 01:58:00,2084E-3,5C000400,-0724,0825,12297,030.5,045.5,0.252,755.6,01.16,0.508
2015-09-18 01:59:00,2244E-3,5C000400,-0724,0823,12256,030.6,045.5,0.252,755.6,01.16,0.508
2015-09-18 02:00:00,2187E-3,5C000400,-0724,0824,12198,030.5,045.5,0.252,755.6,01.16,0.508
2015-09-18 02:01:00,2175E-3,5C000400,-0724,0824,12281,030.5,045.5,0.252,755.6,01.16,0.508
2015-09-18 02:02:00,2209E-3,5C000400,-0724,0824,12208,030.4,045.5,0.252,755.6,01.16,0.508
2015-09-18 02:03:00,2243E-3,5C000400,-0724,0823,12280,030.2,045.5,0.252,755.6,01.16,0.508
2015-09-18 02:04:00,2145E-3,5C000400,-0724,0824,12215,030.1,045.5,0.252,755.6,01.16,0.508
2015-09-18 02:05:00,2201E-3,5C000400,-0724,0823,12194,029.9,045.5,0.252,755.6,01.16,0.508
2015-09-18 02:06:00,2189E-3,5C000400,-0724,0824,12218,029.7,045.5,0.252,755.7,01.16,0.508
2015-09-18 02:07:00,2326E-3,5C000400,-0724,0823,12299,029.6,045.5,0.252,755.6,01.16,0.508
2015-09-18 02:08:00,2189E-3,5C000400,-0724,0823,12124,029.6,045.5,0.252,755.7,01.16,0.508
2015-09-18 02:09:00,2240E-3,5C000400,-0724,0824,12181,029.6,045.5,0.253,755.6,01.16,0.508
2015-09-18 02:10:00,2158E-3,5C000400,-0724,0823,12364,029.6,045.5,0.253,755.6,01.16,0.508
2015-09-18 02:11:00,2276E-3,5C000400,-0724,0823,12209,029.7,045.5,0.253,755.6,01.16,0.508
2015-09-18 02:12:00,2082E-3,5C000400,-0724,0824,12273,029.7,045.5,0.253,755.6,01.16,0.508
2015-09-18 02:13:00,2153E-3,5C000400,-0724,0824,12246,029.8,045.5,0.253,755.6,01.16,0.508
2015-09-18 02:14:00,2079E-3,5C000400,-0724,0824,12232,029.8,045.5,0.253,755.6,01.16,0.508
2015-09-18 02:15:00,2104E-3,5C000400,-0724,0823,12020,029.9,045.5,0.254,755.6,01.16,0.508
2015-09-18 02:16:00,2172E-3,5C000400,-0724,0824,12337,029.9,045.5,0.253,755.6,01.16,0.508
2015-09-18 02:17:00,2262E-3,5C000400,-0724,0824,12206,030.0,045.5,0.253,755.7,01.16,0.508
2015-09-18 02:18:00,2208E-3,5C000400,-0724,0824,12232,030.0,045.5,0.253,755.7,01.16,0.508
2015-09-18 02:19:00,2182E-3,5C000400,-0724,0825,12250,030.1,045.5,0.253,755.7,01.16,0.508
2015-09-18 02:20:00,2183E-3,5C000400,-0724,0824,12332,030.1,045.5,0.253,755.7,01.16,0.508
2015-09-18 02:21:00,2234E-3,5C000400,-0724,0824,12218,030.2,045.5,0.253,755.7,01.16,0.508
2015-09-18 02:22:00,2069E-3,5C000400,-0724,0824,12278,030.2,045.5,0.253,755.7,01.16,0.508
2015-09-18 02:23:00,2134E-3,5C000400,-0724,0824,12104,030.2,045.5,0.252,755.6,01.16,0.508
2015-09-18 02:24:00,2139E-3,5C000400,-0724,0825,12220,030.3,045.5,0.253,755.6,01.16,0.508
2015-09-18 02:25:00,2190E-3,5C000400,-0724,0825,12207,030.3,045.5,0.253,755.7,01.16,0.508
2015-09-18 02:26:00,2241E-3,5C000400,-0724,0824,12225,030.3,045.5,0.253,755.7,01.16,0.508
2015-09-18 02:27:00,2154E-3,5C000400,-0724,0825,12305,030.4,045.5,0.252,755.7,01.16,0.508
2015-09-18 02:28:00,2098E-3,5C000400,-0724,0824,12297,030.4,045.5,0.252,755.7,01.16,0.508
2015-09-18 02:29:00,2079E-3,5C000400,-0724,0825,12188,030.4,045.5,0.252,755.7,01.16,0.508
2015-09-18 02:30:00,2334E-3,5C000400,-0724,0824,12374,030.4,045.5,0.253,755.7,01.16,0.508
2015-09-18 02:31:00,2082E-3,5C000400,-0724,0825,12429,030.5,045.5,0.252,755.7,01.16,0.508
2015-09-18 02:32:00,2162E-3,5C000400,-0724,0824,12251,030.5,045.5,0.252,755.7,01.16,0.508
2015-09-18 02:33:00,2311E-3,5C000400,-0724,0824,12077,030.5,045.5,0.252,755.7,01.16,0.508
2015-09-18 02:34:00,2246E-3,5C000400,-0724,0824,12270,030.6,045.5,0.252,755.7,01.16,0.508
2015-09-18 02:35:00,2288E-3,5C000400,-0724,0825,12304,030.6,045.5,0.252,755.7,01.16,0.508
2015-09-18 02:36:00,2034E-3,5C000400,-0724,0825,12210,030.5,045.5,0.252,755.6,01.16,0.508
2015-09-18 02:37:00,2131E-3,5C000400,-0724,0824,12412,030.5,045.5,0.252,755.7,01.16,0.508
2015-09-18 02:38:00,2276E-3,5C000400,-0724,0824,12321,030.4,045.5,0.252,755.7,01.16,0.508
2015-09-18 02:39:00,2232E-3,5C000400,-0724,0824,12191,030.2,045.5,0.252,755.7,01.16,0.508
2015-09-18 02:40:00,2135E-3,5C000400,-0724,0823,12152,030.0,045.5,0.252,755.8,01.16,0.508
2015-09-18 02:41:00,2116E-3,5C000400,-0724,0824,12296,029.9,045.5,0.252,755.7,01.16,0.508
2015-09-18 02:42:00,2146E-3,5C000400,-0724,0824,12273,029.7,045.5,0.252,755.8,01.16,0.508
2015-09-18 02:43:00,2171E-3,5C000400,-0724,0824,12314,029.6,045.5,0.252,755.8,01.16,0.508
2015-09-18 02:44:00,2144E-3,5C000400,-0724,0824,12096,029.5,045.5,0.253,755.8,01.16,0.508
2015-09-18 02:45:00,2245E-3,5C000400,-0724,0823,12176,029.4,045.5,0.253,755.8,01.16,0.508
2015-09-18 02:46:00,2205E-3,5C000400,-0724,0823,12338,029.4,045.5,0.253,755.8,01.16,0.508
2015-09-18 02:47:00,2248E-3,5C000400,-0724,0823,12316,029.5,045.5,0.253,755.8,01.16,0.508
2015-09-18 02:48:00,2258E-3,5C000400,-0724,0824,12303,029.6,045.5,0.253,755.7,01.16,0.508
2015-09-18 02:49:00,2218E-3,5C000400,-0724,0823,12237,029.6,045.5,0.253,755.8,01.16,0.508
2015-09-18 02:50:00,2119E-3,5C000400,-0724,0823,12306,029.7,045.5,0.253,755.8,01.16,0.508
2015-09-18 02:51:00,2135E-3,5C000400,-0724,0824,12340,029.7,045.5,0.253,755.8,01.16,0.508
2015-09-18 02:52:00,2271E-3,5C000400,-0724,0823,12269,029.8,045.5,0.253,755.8,01.16,0.508
2015-09-18 02:53:00,2186E-3,5C000400,-0724,0824,12375,029.8,045.5,0.253,755.8,01.16,0.508
2015-09-18 02:54:00,2171E-3,5C000400,-0724,0824,12153,029.9,045.5,0.253,755.8,01.16,0.508
2015-09-18 02:55:00,2132E-3,5C000400,-0724,0824,12345,029.9,045.5,0.253,755.8,01.16,0.508
2015-09-18 02:56:00,2245E-3,5C000400,-0724,0824,12245,030.0,045.5,0.253,755.8,01.16,0.508
2015-09-18 02:57:00,2056E-3,5C000400,-0724,0824,12288,030.0,045.5,0.253,755.8,01.16,0.508
2015-09-18 02:58:00,2077E-3,5C000400,-0724,0824,12266,030.1,045.5,0.253,755.8,01.16,0.508
2015-09-18 02:59:00,1961E-3,5C000400,-0724,0824,12072,030.1,045.5,0.253,755.8,01.16,0.508
2015-09-18 03:00:00,2171E-3,5C000400,-0724,0824,12222,030.2,045.5,0.253,755.8,01.16,0.508
2015-09-18 03:01:00,2208E-3,5C000400,-0724,0824,12179,030.2,045.5,0.253,755.8,01.16,0.508
2015-09-18 03:02:00,2167E-3,5C000400,-0724,0824,12283,030.2,045.5,0.253,755.8,01.16,0.508
2015-09-18 03:03:00,2227E-3,5C000400,-0724,0823,12179,030.3,045.5,0.253,755.8,01.16,0.508
2015-09-18 03:04:00,2131E-3,5C000400,-0724,0824,12174,030.3,045.5,0.253,755.8,01.16,0.508
2015-09-18 03:05:00,2213E-3,5C000400,-0724,0824,12302,030.3,045.5,0.253,755.8,01.16,0.508
2015-09-18 03:06:00,2200E-3,5C000400,-0724,0824,12115,030.3,045.5,0.252,755.8,01.16,0.508
2015-09-18 03:07:00,2091E-3,5C000400,-0724,0824,12234,030.4,045.5,0.252,755.8,01.16,0.508
2015-09-18 03:08:00,2131E-3,5C000400,-0724,0824,12306,030.4,045.5,0.253,755.8,01.16,0.508
2015-09-18 03:09:00,2094E-3,5C000400,-0724,0824,12148,030.5,045.5,0.252,755.8,01.16,0.508
2015-09-18 03:10:00,2138E-3,5C000400,-0724,0824,12189,030.5,045.5,0.252,755.8,01.16,0.508
2015-09-18 03:11:00,2008E-3,5C000400,-0724,0824,12215,030.5,045.5,0.252,755.8,01.16,0.508
2015-09-18 03:12:00,2236E-3,5C000400,-0724,0824,12234,030.5,045.5,0.252,755.8,01.16,0.508
2015-09-18 03:13:00,2171E-3,5C000400,-0724,0824,12386,030.4,045.5,0.252,755.7,01.16,0.508
2015-09-18 03:14:00,2131E-3,5C000400,-0724,0824,12127,030.3,045.5,0.252,755.8,01.16,0.508
2015-09-18 03:15:00,2135E-3,5C000400,-0724,0823,12155,030.1,045.5,0.252,755.8,01.16,0.508
2015-09-18 03:16:00,2187E-3,5C000400,-0724,0823,12335,030.0,045.5,0.252,755.8,01.16,0.508
2015-09-18 03:17:00,2051E-3,5C000400,-0724,0823,12221,029.8,045.5,0.252,755.8,01.16,0.508
2015-09-18 03:18:00,2248E-3,5C000400,-0724,0824,12238,029.7,045.5,0.253,755.9,01.16,0.508
2015-09-18 03:19:00,2268E-3,5C000400,-0724,0824,12237,029.6,045.5,0.252,755.9,01.16,0.508
2015-09-18 03:20:00,2026E-3,5C000400,-0724,0823,12263,029.5,045.5,0.253,755.8,01.16,0.508
2015-09-18 03:21:00,2167E-3,5C000400,-0724,0823,12299,029.5,045.5,0.252,755.8,01.16,0.508
2015-09-18 03:22:00,2147E-3,5C000400,-0724,0824,12181,029.6,045.5,0.253,755.8,01.16,0.508
2015-09-18 03:23:00,2059E-3,5C000400,-0724,0824,12331,029.6,045.5,0.253,755.8,01.16,0.508
2015-09-18 03:24:00,2241E-3,5C000400,-0724,0824,12271,029.7,045.5,0.253,755.8,01.16,0.508
2015-09-18 03:25:00,2174E-3,5C000400,-0724,0824,12336,029.7,045.5,0.253,755.8,01.16,0.508
2015-09-18 03:26:00,2248E-3,5C000400,-0724,0823,12396,029.8,045.5,0.254,755.8,01.16,0.508
2015-09-18 03:27:00,2186E-3,5C000400,-0724,0824,12252,029.9,045.5,0.253,755.8,01.16,0.508
2015-09-18 03:28:00,2344E-3,5C000400,-0724,0824,12307,029.9,045.5,0.253,755.8,01.16,0.508
2015-09-18 03:29:00,2242E-3,5C000400,-0724,0825,12309,029.9,045.5,0.253,755.8,01.16,0.508
2015-09-18 03:30:00,2114E-3,5C000400,-0724,0824,12265,030.0,045.5,0.253,755.9,01.16,0.508
2015-09-18 03:31:00,2190E-3,5C000400,-0724,0823,12308,030.0,045.5,0.253,755.8,01.16,0.508
2015-09-18 03:32:00,2189E-3,5C000400,-0724,0824,12261,030.1,045.5,0.253,755.8,01.16,0.508
2015-09-18 03:33:00,2147E-3,5C000400,-0724,0824,12470,030.1,045.5,0.253,755.9,01.16,0.508
2015-09-18 03:34:00,2189E-3,5C000400,-0724,0823,12292,030.1,045.5,0.253,755.9,01.16,0.508
2015-09-18 03:35:00,2159E-3,5C000400,-0724,0824,12156,030.2,045.5,0.252,755.8,01.16,0.508
2015-09-18 03:36:00,2286E-3,5C000400,-0724,0824,12222,030.2,045.5,0.253,755.9,01.16,0.508
2015-09-18 03:37:00,2099E-3,5C000400,-0724,0824,12238,030.2,045.5,0.253,755.8,01.16,0.508
2015-09-18 03:38:00,2138E-3,5C000400,-0724,0824,12258,030.2,045.5,0.253,755.9,01.16,0.508
2015-09-18 03:39:00,2132E-3,5C000400,-0724,0824,12304,030.1,045.5,0.253,755.8,01.16,0.508
2015-09-18 03:40:00,2178E-3,5C000400,-0724,0823,12316,030.0,045.5,0.252,755.9,01.16,0.508
2015-09-18 03:41:00,2181E-3,5C000400,-0724,0823,12141,029.9,045.5,0.253,755.9,01.16,0.508
2015-09-18 03:42:00,2120E-3,5C000400,-0724,0823,12279,029.7,045.5,0.253,756.0,01.16,0.508
2015-09-18 03:43:00,2089E-3,5C000400,-0724,0823,12213,029.6,045.5,0.253,755.9,01.16,0.508
2015-09-18 03:44:00,2091E-3,5C000400,-0724,0823,12219,029.5,045.5,0.253,755.9,01.16,0.508
2015-09-18 03:45:00,2158E-3,5C000400,-0724,0823,12273,029.4,045.5,0.252,755.9,01.16,0.508
2015-09-18 03:46:00,2023E-3,5C000400,-0724,0823,12129,029.4,045.5,0.253,755.9,01.16,0.508
2015-09-18 03:47:00,2203E-3,5C000400,-0724,0824,12247,029.5,045.5,0.253,755.9,01.16,0.508
2015-09-18 03:48:00,2142E-3,5C000400,-0724,0824,12341,029.5,045.5,0.253,755.9,01.16,0.508
2015-09-18 03:49:00,2145E-3,5C000400,-0724,0824,12289,029.6,045.5,0.253,755.9,01.16,0.508
2015-09-18 03:50:00,2180E-3,5C000400,-0724,0823,12152,029.6,045.5,0.253,755.9,01.16,0.508
2015-09-18 03:51:00,2103E-3,5C000400,-0724,0823,12211,029.7,045.5,0.254,755.9,01.16,0.508
2015-09-18 03:52:00,2132E-3,5C000400,-0724,0825,12222,029.7,045.5,0.253,755.9,01.16,0.508
2015-09-18 03:53:00,2154E-3,5C000400,-0724,0825,12381,029.8,045.5,0.253,755.9,01.16,0.508
2015-09-18 03:54:00,2201E-3,5C000400,-0724,0824,12272,029.8,045.5,0.253,755.9,01.16,0.508
2015-09-18 03:55:00,2169E-3,5C000400,-0724,0823,12348,029.9,045.5,0.253,755.9,01.16,0.508
2015-09-18 03:56:00,2306E-3,5C000400,-0724,0824,12241,030.0,045.5,0.253,755.9,01.16,0.508
2015-09-18 03:57:00,2106E-3,5C000400,-0724,0824,12154,030.0,045.5,0.253,755.9,01.16,0.508
2015-09-18 03:58:00,2377E-3,5C000400,-0724,0824,12273,030.0,045.5,0.253,755.9,01.16,0.508
2015-09-18 03:59:00,2147E-3,5C000400,-0724,0824,12178,030.1,045.5,0.253,755.9,01.16,0.508
2015-09-18 04:00:00,2181E-3,5C000400,-0724,0825,12188,030.1,045.5,0.253,755.9,01.16,0.508
2015-09-18 04:01:00,2236E-3,5C000400,-0724,0825,12212,030.2,045.5,0.253,755.9,01.16,0.508
2015-09-18 04:02:00,2142E-3,5C000400,-0724,0824,12275,030.2,045.5,0.253,755.9,01.16,0.508
2015-09-18 04:03:00,2143E-3,5C000400,-0724,0825,12236,030.3,045.5,0.252,756.0,01.16,0.508
2015-09-18 04:04:00,2189E-3,5C000400,-0724,0824,12259,030.3,045.5,0.252,756.0,01.16,0.508
2015-09-18 04:05:00,2145E-3,5C000400,-0724,0824,12350,030.3,045.5,0.253,756.0,01.16,0.508
2015-09-18 04:06:00,2229E-3,5C000400,-0724,0824,12145,030.3,045.5,0.253,756.0,01.16,0.508
2015-09-18 04:07:00,2255E-3,5C000400,-0724,0824,12352,030.4,045.5,0.253,756.0,01.16,0.508
2015-09-18 04:08:00,2208E-3,5C000400,-0724,0824,12200,030.4,045.5,0.252,756.0,01.16,0.508
2015-09-18 04:09:00,2176E-3,5C000400,-0724,0825,12064,030.4,045.5,0.252,756.0,01.16,0.508
2015-09-18 04:10:00,2268E-3,5C000400,-0724,0824,12249,030.5,045.5,0.252,756.0,01.16,0.508
2015-09-18 04:11:00,2319E-3,5C000400,-0724,0824,12321,030.5,045.5,0.252,756.0,01.16,0.508
2015-09-18 04:12:00,2126E-3,5C000400,-0724,0824,12209,030.4,045.5,0.252,756.1,01.16,0.508
2015-09-18 04:13:00,2257E-3,5C000400,-0724,0824,12079,030.3,045.5,0.252,756.0,01.16,0.508
2015-09-18 04:14:00,2190E-3,5C000400,-0724,0824,12180,030.2,045.5,0.253,756.0,01.16,0.508
2015-09-18 04:15:00,2139E-3,5C000400,-0724,0824,12180,030.0,045.5,0.252,756.0,01.16,0.508
2015-09-18 04:16:00,2269E-3,5C000400,-0724,0824,12247,029.9,045.5,0.253,756.0,01.16,0.508
2015-09-18 04:17:00,2155E-3,5C000400,-0724,0824,12238,029.7,045.5,0.252,756.1,01.16,0.508
2015-09-18 04:18:00,2146E-3,5C000400,-0724,0824,12212,029.6,045.5,0.253,756.1,01.16,0.508
2015-09-18 04:19:00,2150E-3,5C000400,-0724,0824,12203,029.5,045.5,0.252,756.1,01.16,0.508
2015-09-18 04:20:00,2283E-3,5C000400,-0724,0823,12259,029.4,045.5,0.253,756.1,01.16,0.508